Location: Poughquag
(41.6090°N, 73.6820°W)
Time: 05:15:40
(UTC-04:00)

ACS3 Solar Sail - Pass Details

Date: 21 June 2024
Orbit: 993 x 1022 km, 97.4° (Epoch: 23 July)

Event Time Altitude Azimuth Distance (km) Brightness Sun altitude
Exits shadow 21:56:51 17° 145° (SE) 2,303 6.1 -12.8°
Maximum altitude 22:01:38 56° 72° (ENE) 1,179 5.1 -13.4°
Drops below altitude 10° 22:07:41 10° 357° (N) 2,768 8.0 -14.1°
Sets 22:10:12 0° 353° (N) 3,719 8.9 -14.4°
